GW0058 Weather Reports


Display with metric or nautical units.
time (UTC)temp
F
wind
direction
speed
MPH
gust
MPH
rain 1hr
in
rain 24hr
in
rain mn
in
humidity
%
barometer
mb
20260509005048 74 0 1.0 5.0 0.00 0.00 0.00 84 1009.9
20260509004554 74 161 2.0 5.0 0.00 0.00 0.00 83 1009.9
20260509004047 74 135 2.0 5.0 0.00 0.00 0.00 83 1009.9
20260509003548 75 154 1.0 5.0 0.00 0.00 0.00 83 1009.9
20260509003057 75 0 1.0 6.0 0.00 0.00 0.00 82 1009.8
20260509002613 75 119 2.0 6.0 0.00 0.00 0.00 82 1009.8
20260509002047 75 120 1.0 5.0 0.00 0.00 0.00 82 1009.8
20260509001554 75 105 1.0 5.0 0.00 0.00 0.00 82 1009.9
20260509001047 75 152 0.0 5.0 0.00 0.00 0.00 82 1009.9
20260509000553 75 113 0.0 7.0 0.00 0.00 0.00 81 1009.9
20260509000055 75 146 3.0 7.0 0.00 0.00 0.00 81 1009.9
20260508235551 75 153 1.0 5.0 0.00 0.00 0.00 81 1009.8
20260508235048 75 126 2.0 9.0 0.00 0.00 0.00 81 1009.8
20260508234557 75 151 3.0 9.0 0.00 0.00 0.00 81 1009.8
20260508234050 76 155 3.0 6.0 0.00 0.00 0.00 80 1009.8
20260508233550 76 140 1.0 6.0 0.00 0.00 0.00 80 1009.9
20260508233109 76 152 2.0 6.0 0.00 0.00 0.00 80 1009.9
20260508232549 76 146 2.0 5.0 0.00 0.00 0.00 80 1009.8
20260508232047 76 182 2.0 8.0 0.00 0.00 0.00 80 1009.8
20260508231558 75 185 2.0 8.0 0.00 0.00 0.00 80 1009.8
20260508231049 76 161 3.0 7.0 0.00 0.00 0.00 80 1009.9
20260508230546 76 150 1.0 8.0 0.00 0.00 0.00 80 1009.8
20260508230057 76 169 3.0 8.0 0.00 0.00 0.00 80 1010.0
20260508225550 76 148 2.0 8.0 0.00 0.00 0.00 80 1009.8
20260508225046 76 157 3.0 8.0 0.00 0.00 0.00 79 1009.9
20260508224618 76 178 2.0 7.0 0.00 0.00 0.00 79 1009.9
20260508224051 76 159 4.0 10.0 0.00 0.00 0.00 79 1009.8
20260508223548 76 185 4.0 10.0 0.00 0.00 0.00 79 1009.8
20260508223057 76 180 3.0 6.0 0.00 0.00 0.00 78 1009.8
20260508222549 76 154 2.0 8.0 0.00 0.00 0.00 78 1009.9
20260508222049 76 158 4.0 8.0 0.00 0.00 0.00 78 1010.0
20260508221606 76 157 3.0 7.0 0.00 0.00 0.00 79 1010.0
20260508221048 76 224 3.0 7.0 0.00 0.00 0.00 78 1010.1
20260508220548 76 171 3.0 7.0 0.00 0.00 0.00 78 1010.0
20260508220057 76 181 3.0 8.0 0.00 0.00 0.00 78 1010.0
20260508215547 76 194 3.0 9.0 0.00 0.00 0.00 78 1010.1
20260508215049 76 171 5.0 9.0 0.00 0.00 0.00 77 1010.2
20260508214558 77 160 2.0 6.0 0.00 0.00 0.00 78 1010.2
20260508214049 77 175 3.0 8.0 0.00 0.00 0.00 77 1010.2
20260508213548 77 195 2.0 8.0 0.00 0.00 0.00 77 1010.2
20260508213053 77 153 4.0 8.0 0.00 0.00 0.00 76 1010.2
20260508212550 78 140 2.0 7.0 0.00 0.00 0.00 76 1010.3
20260508212050 78 174 2.0 7.0 0.00 0.00 0.00 74 1010.2
20260508211553 78 171 3.0 7.0 0.00 0.00 0.00 75 1010.2
20260508211051 79 0 1.0 6.0 0.00 0.00 0.00 77 1010.3
20260508210550 78 234 3.0 6.0 0.00 0.00 0.00 76 1010.4
20260508210055 78 122 2.0 6.0 0.00 0.00 0.00 76 1010.6
20260508205548 78 153 2.0 6.0 0.00 0.00 0.00 76 1010.7
20260508205049 77 0 1.0 7.0 0.00 0.00 0.00 77 1010.7
20260508204556 77 153 3.0 8.0 0.00 0.00 0.00 76 1010.7
20260508204053 77 140 4.0 9.0 0.00 0.00 0.00 76 1010.8
20260508203549 77 96 4.0 9.0 0.00 0.00 0.00 76 1010.9
20260508203058 78 163 2.0 9.0 0.00 0.00 0.00 75 1010.9
20260508202549 78 150 4.0 10.0 0.00 0.00 0.00 76 1010.9
20260508202051 79 144 4.0 10.0 0.00 0.00 0.00 74 1011.0
20260508201557 79 169 3.0 8.0 0.00 0.00 0.00 77 1011.1
20260508201048 78 202 3.0 8.0 0.00 0.00 0.00 73 1011.2
20260508200549 79 219 3.0 8.0 0.00 0.00 0.00 75 1011.3
20260508200104 78 142 3.0 8.0 0.00 0.00 0.00 75 1011.2
20260508195549 78 161 4.0 8.0 0.00 0.00 0.00 77 1011.4
20260508195050 78 148 4.0 11.0 0.00 0.00 0.00 75 1011.3
20260508194601 77 141 5.0 11.0 0.00 0.00 0.00 75 1011.4
20260508194051 77 167 4.0 11.0 0.00 0.00 0.00 74 1011.4
20260508193549 77 143 2.0 10.0 0.00 0.00 0.00 76 1011.3
20260508193103 77 186 4.0 11.0 0.00 0.00 0.00 75 1011.4
20260508192549 78 151 5.0 11.0 0.00 0.00 0.00 74 1011.4
20260508192049 78 161 4.0 9.0 0.00 0.00 0.00 75 1011.3
20260508191555 78 187 4.0 10.0 0.00 0.00 0.00 76 1011.5
20260508191049 77 131 4.0 10.0 0.00 0.00 0.00 77 1011.6
20260508190552 77 186 3.0 8.0 0.00 0.00 0.00 77 1011.7
20260508190053 76 140 4.0 8.0 0.00 0.00 0.00 78 1011.9
20260508185549 76 149 4.0 8.0 0.00 0.00 0.00 76 1011.8
20260508185052 76 148 2.0 8.0 0.00 0.00 0.00 76 1011.9
20260508184556 76 56 1.0 8.0 0.00 0.00 0.00 78 1011.9
20260508184048 75 154 2.0 6.0 0.00 0.00 0.00 77 1012.1
20260508183547 75 139 2.0 6.0 0.00 0.00 0.00 77 1012.1
20260508183054 75 82 2.0 7.0 0.00 0.00 0.00 79 1012.1
20260508182547 73 153 3.0 7.0 0.00 0.00 0.00 80 1012.1
20260508182048 73 149 3.0 7.0 0.00 0.00 0.00 79 1012.3
20260508181559 73 45 1.0 7.0 0.00 0.00 0.00 79 1012.5
20260508181049 73 11 2.0 9.0 0.00 0.00 0.00 81 1012.6
20260508180551 72 136 4.0 9.0 0.00 0.00 0.00 79 1012.7
20260508180058 73 161 2.0 7.0 0.00 0.00 0.00 81 1012.7
20260508175547 73 146 3.0 8.0 0.00 0.00 0.00 79 1012.8
20260508175048 72 73 2.0 8.0 0.00 0.00 0.00 80 1012.8
20260508174613 73 146 2.0 8.0 0.00 0.00 0.00 81 1012.8
20260508174048 72 157 2.0 8.0 0.00 0.00 0.00 80 1012.9
20260508173547 73 129 3.0 8.0 0.00 0.00 0.00 78 1012.8
20260508173053 73 0 0.0 5.0 0.00 0.00 0.00 79 1012.8
20260508172548 73 136 1.0 5.0 0.00 0.00 0.00 79 1012.9
20260508172047 73 0 0.0 4.0 0.00 0.00 0.00 81 1012.9
20260508171603 72 178 1.0 4.0 0.00 0.00 0.00 78 1012.9
20260508171046 72 189 0.0 3.0 0.00 0.00 0.00 78 1012.9
20260508170548 72 0 1.0 4.0 0.00 0.00 0.00 80 1013.0
20260508170057 72 187 1.0 4.0 0.00 0.00 0.00 79 1012.9
20260508165548 71 169 1.0 4.0 0.00 0.00 0.00 80 1012.9
20260508165047 71 167 1.0 3.0 0.00 0.00 0.00 80 1013.0
20260508164603 70 136 1.0 3.0 0.00 0.00 0.00 82 1013.1
20260508164048 70 146 1.0 2.0 0.00 0.00 0.00 81 1013.1
20260508163548 70 100 0.0 2.0 0.00 0.00 0.00 81 1013.1
20260508163118 70 128 0.0 2.0 0.00 0.00 0.00 82 1013.1
20260508162547 70 0 0.0 3.0 0.00 0.00 0.00 81 1013.2
20260508162050 69 82 1.0 4.0 0.00 0.00 0.00 82 1013.4
20260508161559 69 159 1.0 4.0 0.00 0.00 0.00 82 1013.6
20260508161051 68 168 1.0 4.0 0.00 0.00 0.00 81 1013.7
20260508160549 67 192 1.0 4.0 0.00 0.00 0.00 83 1013.9
20260508160115 67 188 0.0 3.0 0.00 0.00 0.00 83 1013.9
20260508155548 67 0 1.0 3.0 0.00 0.00 0.00 82 1014.0
20260508155048 66 90 0.0 3.0 0.00 0.00 0.00 83 1014.1
20260508154558 66 332 0.0 3.0 0.00 0.00 0.00 83 1014.2
20260508154050 66 0 0.0 2.0 0.00 0.00 0.00 85 1014.3
20260508153548 65 300 1.0 2.0 0.00 0.00 0.00 84 1014.3
20260508153057 65 146 0.0 3.0 0.00 0.00 0.00 85 1014.3
20260508152550 64 323 0.0 3.0 0.00 0.00 0.00 84 1014.3
20260508152047 64 22 0.0 3.0 0.00 0.00 0.00 87 1014.4
20260508151601 63 93 0.0 3.0 0.00 0.00 0.00 87 1014.5
20260508151050 63 98 0.0 3.0 0.00 0.00 0.00 86 1014.6
20260508150550 63 0 0.0 0.0 0.00 0.00 0.00 87 1014.5
20260508150055 63 0 0.0 0.0 0.00 0.00 0.00 86 1014.5
20260508145554 63 0 0.0 2.0 0.00 0.00 0.00 88 1014.5
20260508145051 62 0 0.0 2.0 0.00 0.00 0.00 87 1014.6
20260508144553 62 0 0.0 2.0 0.00 0.00 0.00 87 1014.7
20260508144048 62 0 0.0 2.0 0.00 0.00 0.00 86 1014.9
20260508143550 62 122 0.0 2.0 0.00 0.00 0.00 87 1014.7
20260508143058 62 0 0.0 2.0 0.00 0.00 0.00 86 1014.6
20260508142547 62 0 0.0 2.0 0.00 0.00 0.00 85 1014.6
20260508142047 62 0 0.0 1.0 0.00 0.00 0.00 84 1014.6
20260508141548 62 0 0.0 1.0 0.00 0.00 0.00 84 1014.7
20260508141047 62 0 0.0 1.0 0.00 0.00 0.00 83 1014.6
20260508140548 62 0 0.0 3.0 0.00 0.00 0.00 83 1014.6
20260508140058 62 0 0.0 3.0 0.00 0.00 0.00 83 1014.5
20260508135548 62 0 0.0 3.0 0.00 0.00 0.00 83 1014.4
20260508135049 62 44 0.0 2.0 0.00 0.00 0.00 83 1014.4
20260508134554 62 0 0.0 2.0 0.00 0.00 0.00 84 1014.4
20260508134047 62 0 0.0 2.0 0.00 0.00 0.00 84 1014.4
20260508133552 62 0 0.0 2.0 0.00 0.00 0.00 84 1014.4
20260508133059 61 51 0.0 1.0 0.00 0.00 0.00 84 1014.5
20260508132548 61 0 0.0 2.0 0.00 0.00 0.00 85 1014.5
20260508132048 61 0 0.0 2.0 0.00 0.00 0.00 85 1014.5
20260508131557 61 124 0.0 2.0 0.00 0.00 0.00 85 1014.5
20260508131048 61 50 0.0 3.0 0.00 0.00 0.00 86 1014.4
20260508130547 61 0 0.0 3.0 0.00 0.00 0.00 86 1014.5
20260508130104 60 0 0.0 3.0 0.00 0.00 0.00 86 1014.4
20260508125547 60 51 0.0 3.0 0.00 0.00 0.00 86 1014.5
20260508125047 60 0 0.0 3.0 0.00 0.00 0.00 87 1014.6
20260508124554 60 338 0.0 2.0 0.00 0.00 0.00 86 1014.9
20260508124048 60 0 0.0 3.0 0.00 0.00 0.00 86 1014.7
20260508123547 60 323 0.0 3.0 0.00 0.00 0.00 86 1014.9
20260508123101 60 319 0.0 3.0 0.00 0.00 0.00 87 1015.0
20260508122550 60 0 0.0 3.0 0.00 0.00 0.00 87 1014.9
20260508122048 59 324 1.0 3.0 0.00 0.00 0.00 87 1014.6
20260508121629 59 325 1.0 3.0 0.00 0.00 0.00 88 1014.5
20260508121118 59 0 0.0 3.0 0.00 0.00 0.00 88 1014.6
20260508120547 59 0 0.0 2.0 0.00 0.00 0.00 88 1014.6
20260508120050 59 0 0.0 2.0 0.00 0.00 0.00 88 1014.5
20260508115546 59 0 0.0 2.0 0.00 0.00 0.00 88 1014.6
20260508115045 59 0 0.0 1.0 0.00 0.00 0.00 89 1014.7
20260508114552 59 0 0.0 1.0 0.00 0.00 0.00 88 1014.8
20260508114047 59 0 0.0 2.0 0.00 0.00 0.00 89 1014.9
20260508113548 59 0 0.0 2.0 0.00 0.00 0.00 89 1014.9
20260508113049 59 0 0.0 2.0 0.00 0.00 0.00 89 1014.7
20260508112547 59 0 0.0 1.0 0.00 0.00 0.00 88 1015.0
20260508112047 59 0 0.0 0.0 0.00 0.00 0.00 87 1015.0
20260508111552 60 0 0.0 3.0 0.00 0.00 0.00 86 1015.2
20260508111047 60 0 0.0 3.0 0.00 0.00 0.00 83 1015.2
20260508110546 60 319 1.0 3.0 0.00 0.00 0.00 81 1015.4
20260508110050 60 286 0.0 3.0 0.00 0.00 0.00 81 1015.3
20260508105548 60 0 0.0 4.0 0.00 0.00 0.00 80 1015.3
20260508105045 60 304 1.0 4.0 0.00 0.00 0.00 80 1015.4
20260508104556 60 297 1.0 5.0 0.00 0.00 0.00 80 1015.2
20260508104046 60 0 0.0 5.0 0.00 0.00 0.00 80 1015.1
20260508103548 60 360 0.0 5.0 0.00 0.00 0.00 80 1014.9
20260508103051 60 326 1.0 5.0 0.00 0.00 0.00 80 1014.9
20260508102545 60 321 1.0 6.0 0.00 0.00 0.00 80 1015.0
20260508102049 61 317 1.0 6.0 0.00 0.00 0.00 80 1014.9
20260508101553 61 290 2.0 6.0 0.00 0.00 0.00 80 1014.9
20260508101048 61 335 0.0 2.0 0.00 0.00 0.00 80 1014.8
20260508100550 61 0 0.0 2.0 0.00 0.00 0.00 80 1014.7
20260508100052 61 0 0.0 3.0 0.00 0.00 0.00 81 1014.6
20260508095547 61 311 0.0 3.0 0.00 0.00 0.00 80 1014.6
20260508095046 61 0 0.0 3.0 0.00 0.00 0.00 80 1014.6
20260508094549 61 0 0.0 4.0 0.00 0.00 0.00 81 1014.6
20260508094048 60 31 1.0 4.0 0.00 0.00 0.00 81 1014.9
20260508093550 60 300 0.0 2.0 0.00 0.00 0.00 81 1014.9
20260508093053 60 0 0.0 3.0 0.00 0.00 0.00 81 1014.6
20260508092548 61 0 0.0 3.0 0.00 0.00 0.00 81 1014.7
20260508092049 60 34 0.0 1.0 0.00 0.00 0.00 81 1015.0
20260508091601 60 0 0.0 1.0 0.00 0.00 0.00 81 1015.0
20260508091048 60 0 0.0 0.0 0.00 0.00 0.00 81 1015.0
20260508090548 60 0 0.0 2.0 0.00 0.00 0.00 80 1014.9
20260508090104 60 0 0.0 2.0 0.00 0.00 0.00 81 1015.1
20260508085547 60 323 0.0 2.0 0.00 0.00 0.00 81 1015.0
20260508085047 60 323 0.0 2.0 0.00 0.00 0.00 81 1015.0
20260508084554 60 0 0.0 2.0 0.00 0.00 0.00 81 1015.0
20260508084047 60 0 0.0 2.0 0.00 0.00 0.00 82 1014.9
20260508083548 60 323 0.0 2.0 0.00 0.00 0.00 82 1015.0
20260508083055 60 0 0.0 1.0 0.00 0.00 0.00 82 1014.9
20260508082548 60 351 0.0 0.0 0.00 0.00 0.00 81 1015.1
20260508082049 60 0 0.0 0.0 0.00 0.00 0.00 80 1015.1
20260508081608 61 0 0.0 0.0 0.00 0.00 0.00 80 1015.1
20260508081049 61 0 0.0 0.0 0.00 0.00 0.00 79 1015.1
20260508080548 61 0 0.0 0.0 0.00 0.00 0.00 78 1015.1
20260508080056 61 0 0.0 0.0 0.00 0.00 0.00 78 1015.2
20260508075547 61 0 0.0 0.0 0.00 0.00 0.00 79 1015.2
20260508075049 61 0 0.0 0.0 0.00 0.00 0.00 78 1015.1
20260508074559 61 0 0.0 0.0 0.00 0.00 0.00 78 1015.3
20260508074050 61 0 0.0 0.0 0.00 0.00 0.00 77 1015.4
20260508073551 61 0 0.0 2.0 0.00 0.00 0.00 78 1015.4
20260508073103 61 0 0.0 2.0 0.00 0.00 0.00 77 1015.5
20260508072548 61 107 0.0 1.0 0.00 0.00 0.00 77 1015.3
20260508072048 61 0 0.0 1.0 0.00 0.00 0.00 77 1015.4
20260508071623 61 0 0.0 1.0 0.00 0.00 0.00 77 1015.4
20260508071049 61 0 0.0 4.0 0.00 0.00 0.00 77 1015.5
20260508070548 61 0 0.0 4.0 0.00 0.00 0.00 77 1015.3
20260508070104 61 0 1.0 4.0 0.00 0.00 0.00 77 1015.4
20260508065548 61 111 0.0 2.0 0.00 0.00 0.00 78 1015.3
20260508065049 61 73 0.0 2.0 0.00 0.00 0.00 78 1015.3
20260508064554 61 311 0.0 3.0 0.00 0.00 0.00 78 1015.2
20260508064049 61 0 0.0 3.0 0.00 0.00 0.00 78 1015.1
20260508063550 61 0 0.0 3.0 0.00 0.00 0.00 78 1015.1
20260508063100 61 21 0.0 3.0 0.00 0.00 0.00 78 1015.2
20260508062547 61 0 0.0 2.0 0.00 0.00 0.00 78 1015.5
20260508062047 61 0 0.0 1.0 0.00 0.00 0.00 79 1015.6
20260508061556 61 0 0.0 0.0 0.00 0.00 0.00 79 1015.7
20260508061048 61 0 0.0 0.0 0.00 0.00 0.00 79 1015.9
20260508060547 60 0 0.0 0.0 0.00 0.00 0.00 80 1015.8
20260508060055 60 0 0.0 1.0 0.00 0.00 0.00 79 1015.9
20260508055552 60 0 0.0 1.0 0.00 0.00 0.00 79 1016.0
20260508055048 60 0 0.0 2.0 0.00 0.00 0.00 77 1015.8
20260508054556 61 0 0.0 2.0 0.00 0.00 0.00 77 1015.7
20260508054047 61 0 0.0 2.0 0.00 0.00 0.00 77 1015.5
20260508053547 61 0 0.0 3.0 0.00 0.00 0.00 77 1015.6
20260508053053 61 0 0.0 3.0 0.00 0.00 0.00 76 1015.8
20260508052549 61 24 0.0 3.0 0.00 0.00 0.00 76 1016.0
20260508052048 61 334 1.0 3.0 0.00 0.00 0.00 76 1016.1
20260508051548 61 321 0.0 3.0 0.00 0.00 0.00 75 1016.0
20260508051048 61 0 0.0 3.0 0.00 0.00 0.00 75 1016.1
20260508050548 61 0 0.0 3.0 0.00 0.00 0.00 75 1016.1
20260508050053 61 329 1.0 2.0 0.00 0.00 0.00 75 1016.1
20260508045548 61 304 0.0 4.0 0.00 0.00 0.00 75 1016.1
20260508045048 61 299 0.0 4.0 0.00 0.00 0.00 76 1015.8
20260508044558 61 344 2.0 6.0 0.00 0.00 0.00 75 1015.6
20260508044049 61 0 1.0 7.0 0.00 0.00 0.00 76 1015.8
20260508043547 61 320 2.0 7.0 0.00 0.00 0.00 76 1016.1
20260508043048 61 5 2.0 4.0 0.00 0.00 0.00 76 1015.8
20260508042549 61 0 0.0 2.0 0.00 0.00 0.00 76 1015.4
20260508042048 61 65 0.0 3.0 0.00 0.00 0.00 77 1015.1
20260508041550 61 323 0.0 3.0 0.00 0.00 0.00 77 1015.5
20260508041048 61 51 0.0 3.0 0.00 0.00 0.00 77 1015.2
20260508040548 61 82 1.0 3.0 0.00 0.00 0.00 77 1015.1
20260508040055 61 0 0.0 3.0 0.00 0.00 0.00 77 1015.3
20260508035547 61 0 0.0 2.0 0.00 0.00 0.00 76 1015.4
20260508035047 61 0 0.0 1.0 0.00 0.00 0.00 76 1015.6
20260508034550 62 0 0.0 1.0 0.00 0.00 0.00 75 1016.0
20260508034047 62 0 0.0 1.0 0.00 0.00 0.00 74 1016.2
20260508033548 62 0 0.0 1.0 0.00 0.00 0.00 75 1016.1
20260508033112 62 0 0.0 1.0 0.00 0.00 0.00 74 1016.2
20260508032547 62 0 0.0 1.0 0.00 0.00 0.00 75 1016.2
20260508032051 62 0 0.0 1.0 0.00 0.00 0.00 74 1016.3
20260508031548 62 0 0.0 1.0 0.00 0.00 0.00 73 1016.5
20260508031051 62 0 0.0 3.0 0.00 0.00 0.00 72 1016.8
20260508030547 63 0 0.0 3.0 0.00 0.00 0.00 72 1016.9
20260508030109 62 0 1.0 3.0 0.00 0.00 0.00 72 1017.0
20260508025547 63 305 0.0 2.0 0.00 0.00 0.00 71 1016.9
20260508025045 63 110 0.0 2.0 0.00 0.00 0.00 71 1016.8
20260508024616 63 0 0.0 2.0 0.00 0.00 0.00 70 1016.7
20260508024048 62 37 0.0 3.0 0.00 0.00 0.00 70 1016.5
20260508023548 62 310 0.0 3.0 0.00 0.00 0.00 71 1016.4
20260508023057 62 355 0.0 3.0 0.00 0.00 0.00 72 1016.3
20260508022547 62 0 1.0 3.0 0.00 0.00 0.00 72 1015.6
20260508022048 62 84 0.0 2.0 0.00 0.00 0.00 72 1015.3
20260508021600 62 83 0.0 3.0 0.00 0.00 0.00 72 1014.9
20260508021050 62 65 0.0 3.0 0.00 0.00 0.00 72 1014.8
20260508020546 63 115 0.0 2.0 0.00 0.00 0.00 72 1014.7
20260508020110 63 0 0.0 3.0 0.00 0.00 0.00 71 1014.9
20260508015546 63 100 0.0 3.0 0.00 0.00 0.00 71 1014.7
20260508015046 63 0 0.0 4.0 0.00 0.00 0.00 71 1014.3
20260508014604 63 59 0.0 7.0 0.00 0.00 0.00 71 1014.0
20260508014047 63 104 1.0 7.0 0.00 0.00 0.00 71 1013.8
20260508013546 63 111 1.0 7.0 0.00 0.00 0.00 70 1014.0
20260508013105 63 61 2.0 6.0 0.00 0.00 0.00 69 1014.0
20260508012548 64 114 1.0 5.0 0.00 0.00 0.00 69 1014.3
20260508012047 64 355 1.0 5.0 0.00 0.00 0.00 68 1014.5
20260508011559 64 95 1.0 4.0 0.00 0.00 0.00 68 1014.6
20260508011049 64 108 0.0 5.0 0.00 0.00 0.00 68 1014.9
20260508010547 64 267 2.0 5.0 0.00 0.00 0.00 67 1015.3
20260508010106 64 290 0.0 6.0 0.00 0.00 0.00 68 1014.9
20260508005547 64 71 1.0 10.0 0.00 0.00 0.00 67 1015.0